Wind_Speed
2 1 1 2 3 3 4 5 5 5 5 6 7 8 9 10 11 12 12 12 13 13 14 14 14 13 11 9 8 8 8 9 10 11 12 13 13 13 13 13 12 13 13 14 14 15 16 17 18 18 18 18 18 18 18 18 18 18 17 17 17 17 17 17 18 19 19 20 20 20 20 21 21 21 21 21 22 22 22 22 23 23 23 23 23 24
2 2 1 2 3 4 4 5 5 6 6 6 7 8 8 9 9 10 10 11 11 12 13 13 12 10 8 8 7 7 8 9 10 12 12 13 13 13 13 12 12 13 13 14 15 16 17 17 18 18 18 18 18 17 17 18 17 17 17 16 16 16 17 17 18 18 19 19 20 20 20 21 21 21 21 21 22 22 22 23 23 23 23 23 24 24
3 3 2 2 3 4 4 5 6 6 6 6 7 7 8 8 8 8 9 9 10 11 12 11 10 8 7 6 6 7 8 10 11 12 13 14 14 14 14 13 13 13 13 14 15 16 17 17 18 18 18 17 17 17 17 17 17 16 16 16 16 16 16 17 18 18 19 20 20 20 20 21 21 21 21 21 21 22 22 22 23 23 23 24 24 25
4 4 3 3 3 4 5 6 6 7 7 6 7 7 8 8 8 8 8 9 9 10 10 9 8 6 6 6 6 8 10 11 13 15 16 16 16 16 16 15 14 14 14 15 15 16 17 17 17 17 17 17 17 17 16 16 16 16 15 15 16 16 16 17 18 19 19 20 20 20 21 21 21 21 21 21 21 22 22 22 23 23 23 24 25 25
4 4 3 3 4 5 6 6 7 7 7 7 7 8 9 9 9 9 9 10 10 10 9 8 6 5 5 6 7 10 12 14 16 18 18 19 18 18 17 16 16 15 15 15 16 16 17 17 17 16 16 16 16 16 16 15 15 15 15 15 16 16 17 17 18 19 19 20 20 20 20 21 21 21 21 21 22 22 22 22 22 23 24 24 25 25
5 4 3 4 5 6 6 7 7 8 8 8 9 10 11 11 10 10 10 11 11 11 10 8 6 6 6 7 9 12 15 17 19 20 20 19 19 18 18 17 16 16 16 15 16 16 16 16 16 16 16 16 15 15 15 14 14 14 15 15 16 17 17 18 19 19 20 20 20 20 20 21 21 21 21 21 22 22 22 22 23 23 24 24 24 25
5 5 4 4 5 6 8 9 9 9 10 10 11 10 10 10 10 10 11 12 13 14 13 11 9 8 8 10 12 14 17 19 20 20 19 18 18 18 17 17 16 16 15 15 15 15 15 15 15 15 15 15 15 14 14 14 14 14 15 16 16 17 18 18 19 19 20 20 20 20 20 21 21 21 21 21 22 22 22 22 23 23 24 24 24 24
6 6 6 6 6 6 8 10 11 11 11 12 11 10 9 9 9 10 10 11 13 14 15 14 12 10 10 11 13 14 17 19 19 19 18 17 17 17 17 17 17 16 15 15 15 14 14 14 14 14 15 14 14 14 13 14 14 15 16 16 17 18 18 19 19 19 20 20 20 20 20 21 21 21 21 21 22 22 22 23 23 23 24 24 24 24
6 6 7 7 7 6 5 7 11 12 12 13 12 11 10 10 10 10 10 10 11 13 14 14 13 12 11 12 13 14 16 18 18 18 17 17 17 17 17 17 17 16 15 15 14 14 13 13 14 14 14 13 13 12 13 13 14 15 16 17 18 19 19 19 19 19 20 20 20 21 21 21 21 21 21 22 22 22 23 23 23 23 24 24 24 24
9 8 7 8 9 8 5 5 9 12 13 13 13 13 12 12 12 12 11 9 10 12 13 13 12 12 11 12 13 15 16 17 17 17 17 17 17 16 17 17 17 16 15 15 14 13 12 12 14 14 14 13 12 12 13 14 15 16 17 18 19 19 19 19 19 20 20 20 20 21 21 21 21 21 21 22 22 22 23 23 23 24 24 24 24 24
9 8 8 7 9 10 10 8 10 12 14 12 10 11 12 13 12 11 10 10 11 12 13 12 11 11 10 11 13 15 17 17 17 17 17 16 16 16 16 17 17 16 14 13 12 11 11 12 14 14 14 13 12 13 14 15 16 17 18 18 19 20 20 20 20 20 20 20 21 21 21 21 21 21 22 22 22 23 23 23 23 23 23 23 23 23
8 8 8 7 7 8 8 9 10 12 12 9 7 7 8 11 12 10 9 9 10 12 12 12 11 10 10 11 14 16 17 17 16 17 16 15 14 13 14 15 15 14 13 12 10 10 11 12 14 14 14 13 13 13 15 16 17 18 18 19 19 20 20 20 21 21 21 21 21 21 21 21 21 22 22 22 22 23 23 23 23 23 23 23 23 23
9 8 7 6 6 6 6 7 7 8 8 8 7 6 6 9 11 10 8 8 9 11 12 12 11 9 9 12 14 15 16 16 16 16 15 14 12 12 13 14 15 14 12 11 10 10 11 12 13 13 13 13 13 14 15 16 17 18 19 19 20 20 20 21 21 21 21 21 21 21 21 21 21 22 22 22 22 22 23 23 23 23 23 23 23 23
7 7 6 5 6 6 6 6 6 6 7 7 7 7 8 9 10 9 8 8 9 10 11 12 11 9 8 11 13 14 15 16 17 16 15 13 12 12 13 14 14 14 12 11 10 10 11 12 12 12 12 12 13 14 16 17 18 19 19 20 20 20 21 21 21 21 21 21 21 21 21 21 21 22 22 22 22 22 23 23 23 23 23 23 23 22
5 5 5 6 6 6 6 6 6 6 6 7 8 10 10 10 9 9 8 9 10 11 11 11 11 9 7 8 10 12 14 16 17 16 15 13 12 12 12 13 13 13 12 11 11 11 11 12 11 11 11 12 13 15 17 18 19 20 20 20 20 21 21 21 21 21 22 22 21 21 21 21 21 21 22 22 22 22 22 22 23 23 23 22 22 22
6 6 6 6 5 5 6 6 6 5 6 8 10 10 9 8 8 8 8 9 10 11 11 11 11 10 7 7 8 11 15 17 17 16 15 14 12 12 12 13 13 13 12 11 11 11 11 11 11 11 12 13 15 16 18 19 20 20 20 20 21 21 21 21 21 21 21 21 21 21 21 21 21 21 22 22 22 22 22 22 22 23 23 22 22 22
7 6 6 5 5 5 5 6 6 6 7 9 9 9 8 7 8 8 8 9 9 10 10 10 9 8 7 7 8 12 18 19 18 16 14 13 12 12 11 12 12 12 12 12 11 11 11 12 12 12 13 14 16 17 18 19 20 21 21 20 21 21 21 21 21 21 21 21 21 21 20 21 21 21 22 22 22 22 22 22 22 22 22 22 22 21
7 6 6 5 5 4 5 6 6 7 8 8 9 9 8 8 8 8 8 8 8 9 9 9 8 7 6 8 9 13 18 19 17 15 14 13 12 11 11 11 12 12 12 12 11 11 11 12 13 13 14 16 17 18 19 20 21 21 21 20 21 21 21 21 21 21 21 21 21 20 21 21 21 21 22 22 22 22 22 22 22 22 22 22 21 21
7 6 6 5 4 4 5 6 7 7 8 8 9 9 8 8 8 8 7 8 8 8 8 8 8 8 8 9 10 13 18 18 16 14 13 13 12 11 11 11 12 12 12 12 12 12 12 13 14 15 15 16 16 18 19 20 21 21 20 21 21 21 21 21 21 20 20 20 20 21 21 21 21 21 21 21 22 22 22 22 22 21 21 21 21 21
7 7 6 5 4 4 5 6 7 8 8 9 9 9 9 9 9 8 8 8 8 8 8 8 9 9 9 9 10 13 16 17 15 13 12 13 12 11 11 11 12 12 13 12 12 13 13 14 15 15 15 15 16 18 19 20 21 20 20 21 21 21 21 20 20 20 20 20 20 21 21 21 21 21 21 21 21 21 21 21 21 21 20 20 20 20
7 7 7 6 5 4 4 5 7 9 10 10 10 9 9 9 9 9 8 8 8 9 9 8 9 9 9 8 9 11 16 16 14 12 12 12 11 11 11 12 12 12 13 13 13 14 15 15 15 15 15 15 17 18 20 20 20 20 20 20 21 20 20 20 20 20 20 20 20 21 21 21 21 21 21 21 21 20 20 20 20 20 20 20 20 20
8 7 8 8 7 6 5 6 8 10 12 12 11 10 10 10 9 9 9 9 9 9 9 9 9 9 9 8 8 10 14 14 13 12 11 11 11 11 11 12 12 13 13 14 14 15 16 16 16 15 15 15 17 19 20 20 20 20 20 20 20 20 20 20 20 20 20 20 20 21 21 21 21 21 21 21 21 20 20 20 20 20 20 20 20 19
10 9 9 9 9 8 8 8 10 12 13 12 11 11 11 10 9 9 9 9 10 10 10 11 11 10 8 7 7 9 12 13 13 11 10 9 10 11 11 12 12 13 14 15 16 17 17 17 16 15 15 15 17 19 20 20 20 20 20 20 20 20 20 19 19 19 20 20 20 21 21 21 21 21 21 21 21 20 20 20 19 19 20 20 20 19
11 10 10 10 10 10 10 10 10 11 12 12 12 12 12 11 10 9 9 9 10 11 11 11 10 8 6 5 5 6 8 11 12 10 9 9 10 12 12 12 13 13 14 16 17 17 18 17 16 15 14 15 16 18 19 20 20 20 20 20 19 19 19 19 19 19 20 20 20 21 21 21 21 21 21 21 21 20 20 20 19 19 20 20 20 19
11 10 10 10 9 9 9 9 9 10 11 11 11 12 13 12 10 8 8 9 10 11 10 9 8 6 6 5 4 4 6 9 10 9 9 9 10 12 12 12 13 14 15 17 17 17 17 17 16 15 14 14 16 18 19 19 20 20 20 20 19 19 19 19 19 19 20 20 20 21 21 21 21 21 21 21 21 20 20 20 19 19 20 20 20 19
11 10 9 8 8 8 8 8 9 10 11 11 12 13 13 11 9 7 7 8 9 9 8 7 6 6 6 6 5 5 6 7 9 9 9 9 10 11 11 12 13 14 16 18 18 17 17 17 16 15 13 14 15 17 18 19 20 21 20 20 20 19 19 19 19 19 20 20 21 21 21 21 21 21 21 21 21 20 20 20 20 20 20 20 20 19
11 10 9 9 9 9 10 10 11 11 12 12 13 14 14 12 9 6 6 8 9 8 7 7 6 7 7 7 6 6 6 6 8 10 10 10 10 10 11 12 13 15 17 18 18 17 17 16 15 14 13 14 15 17 18 20 20 20 20 20 20 20 20 19 19 20 20 20 21 21 20 21 21 21 21 21 21 20 20 20 20 20 20 19 18 17
11 11 11 11 11 11 11 12 12 13 13 13 14 15 15 12 9 6 7 9 9 8 6 6 6 6 6 7 7 6 5 5 8 10 11 10 9 9 11 13 14 15 16 18 19 18 15 13 12 12 13 15 17 18 19 20 20 19 20 20 20 20 20 20 20 20 20 20 20 20 20 20 20 20 20 20 20 20 20 20 20 20 20 18 17 16
13 12 12 12 12 13 13 13 14 14 14 15 15 15 14 12 10 8 8 9 9 7 6 6 6 6 6 8 8 6 4 5 8 11 12 10 8 9 11 13 13 14 15 17 18 18 14 11 10 11 13 16 18 19 19 19 18 19 19 20 20 20 19 19 20 20 20 20 20 20 20 20 20 20 20 20 20 20 20 19 19 19 18 17 16 16
13 13 13 13 14 14 15 15 15 15 16 16 15 15 14 12 10 9 10 9 8 6 6 6 6 6 7 8 7 4 3 5 9 12 13 10 9 10 12 13 13 13 14 14 13 12 12 13 12 12 14 17 18 18 18 18 18 18 18 19 20 19 19 20 20 21 21 20 20 20 20 20 20 20 20 20 20 20 19 19 19 18 18 17 16 16
14 14 14 15 15 16 16 16 16 16 16 16 15 15 14 12 11 10 10 9 8 6 5 5 6 6 7 6 4 3 2 6 10 13 13 10 9 10 12 13 13 13 12 11 7 5 8 12 14 16 17 18 19 19 18 17 17 17 18 19 19 19 20 20 21 21 20 20 20 20 20 20 20 20 20 20 20 20 19 19 19 18 18 17 17 16
14 15 15 15 15 16 16 16 15 15 15 15 15 14 14 13 11 10 9 9 7 6 5 5 6 6 6 5 4 3 4 7 10 12 12 10 9 10 12 12 13 13 12 10 8 6 6 7 14 19 19 19 19 19 18 17 17 17 18 18 19 19 20 20 20 20 20 20 20 20 20 20 21 21 21 20 20 20 20 20 19 19 18 17 17 17
15 15 15 14 14 14 14 14 13 13 14 14 14 14 13 13 12 11 10 9 8 6 5 5 6 6 6 6 5 5 6 7 9 11 11 10 9 10 12 12 13 13 13 12 11 10 9 11 15 19 20 19 18 18 17 17 16 17 17 18 19 19 20 20 19 19 19 19 20 20 20 20 21 21 21 21 21 20 20 21 20 20 19 19 18 18
14 14 14 13 12 12 12 12 12 12 13 13 14 13 13 12 12 11 10 9 8 7 6 5 5 6 6 6 6 6 7 7 9 10 11 11 10 10 12 13 13 13 13 13 12 12 13 15 16 17 18 19 19 17 16 16 16 17 17 18 18 19 20 19 19 19 20 20 20 20 20 20 20 21 21 21 21 21 21 22 22 22 21 20 19 18
11 11 12 12 12 11 11 12 12 13 13 13 13 13 12 12 11 11 10 9 8 7 6 6 5 5 6 6 6 7 7 9 10 11 11 11 11 11 12 12 12 13 13 13 13 12 13 15 16 17 17 19 19 18 16 15 16 17 18 18 18 18 19 19 20 20 20 20 20 20 20 20 20 21 21 21 21 22 23 24 24 23 22 21 20 19
9 10 11 12 12 11 11 12 12 13 13 13 13 13 12 11 11 10 10 9 9 8 7 7 7 7 7 7 7 8 9 11 11 11 11 11 12 12 12 12 12 13 13 13 13 13 13 15 17 17 17 17 17 17 18 17 17 18 19 19 19 19 19 19 19 19 20 20 20 20 20 21 21 21 21 22 23 24 24 24 24 23 22 21 20 19
8 9 10 11 11 11 11 12 13 13 14 14 13 13 12 11 11 10 10 10 10 9 9 9 9 9 9 9 9 10 11 12 12 12 12 12 13 13 13 13 14 14 13 13 13 14 14 15 16 17 16 15 14 16 19 20 20 20 19 19 19 19 19 19 19 19 19 20 21 21 21 21 22 22 22 23 23 23 23 23 22 22 21 21 21 20
9 9 10 11 11 11 11 12 13 13 13 13 13 13 12 11 11 10 10 10 10 10 10 10 10 10 10 10 11 11 12 12 13 13 12 12 13 14 15 15 16 15 14 14 14 14 14 14 12 12 14 15 17 18 19 20 20 20 20 21 21 20 19 19 18 19 19 20 21 21 21 22 22 22 22 23 22 22 22 22 21 21 21 21 21 21
9 9 10 11 11 11 11 12 12 13 13 13 13 13 12 11 11 10 10 10 10 10 10 10 11 11 12 12 12 12 12 12 13 13 12 12 13 14 16 16 16 16 16 15 15 14 14 13 12 12 13 15 18 20 20 20 20 20 22 23 23 21 19 19 19 19 19 20 20 21 21 21 22 22 22 22 22 22 22 22 22 21 20 20 20 20
8 9 9 10 11 11 11 11 12 12 13 13 13 13 13 12 11 11 10 10 9 9 10 11 11 12 12 13 13 13 13 13 12 13 13 13 14 15 16 17 17 17 17 17 16 15 14 14 15 16 16 16 17 19 20 20 20 20 22 22 21 21 21 21 20 20 19 19 20 21 22 22 22 22 22 22 22 22 22 22 22 22 21 20 20 20
8 9 9 10 11 11 11 12 12 12 13 13 13 13 13 13 13 13 12 11 10 10 11 11 11 11 11 12 13 13 14 14 13 14 14 15 16 17 17 18 18 18 18 18 17 16 16 16 16 17 17 18 19 20 21 21 21 21 21 20 21 23 24 23 21 19 19 19 20 21 22 23 23 23 23 23 22 22 22 22 23 23 22 21 20 20
9 9 9 10 10 11 11 12 12 13 13 13 12 12 13 14 14 14 13 13 12 12 12 12 12 12 12 11 11 12 13 15 15 15 16 16 17 18 18 19 19 19 19 19 18 18 17 17 17 18 18 18 18 19 20 22 22 21 20 20 22 24 24 23 20 19 19 20 21 22 22 22 22 23 23 24 24 23 23 23 23 23 22 22 21 20
9 9 10 10 10 11 11 12 13 13 13 12 12 13 14 14 14 14 13 13 13 13 13 13 13 12 12 11 11 11 12 14 15 15 15 16 17 17 17 17 18 19 19 19 19 19 19 18 17 17 18 18 18 19 20 22 22 22 21 20 21 21 19 21 22 22 22 22 21 21 21 21 22 24 24 25 25 24 23 23 22 22 22 21 21 21
10 10 10 11 11 12 12 12 13 13 13 12 13 14 14 14 14 13 12 12 13 13 13 13 13 12 11 11 11 12 12 13 13 13 13 14 14 15 15 16 17 17 18 18 18 19 19 19 18 18 18 17 17 18 20 21 22 22 21 21 20 20 19 21 23 24 24 23 22 21 21 22 23 25 26 26 25 24 23 22 21 21 21 21 21 21
10 10 11 11 12 12 12 12 12 13 13 13 14 15 15 15 14 12 12 12 12 13 12 12 12 11 11 11 12 13 13 13 13 13 13 13 14 14 15 16 16 17 17 18 18 18 19 19 19 19 19 18 17 18 19 20 21 22 22 22 21 21 22 23 23 23 23 23 23 22 22 23 24 25 26 26 25 24 23 22 22 21 21 21 21 21
10 11 11 12 12 11 11 12 12 12 12 13 14 15 16 16 15 13 12 12 12 12 11 11 11 10 11 12 13 14 15 15 15 15 15 15 15 15 15 15 16 16 17 18 18 19 19 20 21 21 21 19 19 19 19 19 20 20 21 22 22 22 23 23 22 22 22 23 23 24 24 24 24 24 25 25 25 25 24 22 21 21 21 21 21 21
11 11 11 11 11 11 12 13 13 12 12 12 13 14 15 16 15 14 13 12 12 12 11 11 11 10 11 12 13 14 15 16 17 17 16 16 17 17 16 16 16 17 18 18 19 20 21 22 23 22 20 20 19 19 19 19 19 20 21 22 23 23 23 23 23 22 22 22 23 24 25 25 24 24 24 25 25 25 24 23 21 21 21 21 21 21
12 11 11 11 11 11 12 13 13 13 12 13 13 14 14 15 14 14 13 13 12 12 11 11 11 11 11 12 13 14 15 16 17 17 17 18 18 18 18 18 19 19 19 19 19 19 20 22 23 23 22 20 19 19 19 19 19 20 20 21 22 22 23 24 24 24 23 23 24 25 25 24 23 23 24 25 26 26 25 24 23 22 21 20 20 21
12 12 11 11 11 12 12 13 14 13 13 13 14 14 14 14 14 13 12 12 12 11 11 11 11 12 12 13 13 14 15 16 16 16 17 17 18 19 20 20 20 21 20 20 19 18 18 19 20 20 19 20 19 19 19 19 20 20 20 21 21 22 22 24 25 25 24 25 25 25 24 23 22 22 23 23 24 25 26 26 25 24 22 21 20 20
12 12 12 12 12 12 12 13 14 14 14 13 13 13 14 14 14 13 12 12 11 11 10 11 12 12 13 13 14 15 16 16 16 17 17 17 18 20 20 21 22 22 21 21 21 20 18 18 17 16 14 14 16 17 17 18 19 20 21 21 21 21 22 24 25 25 25 26 26 26 26 24 23 22 21 21 23 24 26 26 26 25 24 22 22 22
12 12 12 12 12 12 13 14 14 14 14 14 13 13 13 13 13 13 13 12 12 11 11 11 12 12 13 14 15 16 16 16 16 17 17 18 19 19 20 20 20 21 21 20 21 20 18 17 16 16 15 12 11 12 14 16 19 20 21 22 21 21 22 23 25 25 26 26 26 26 26 25 23 22 21 21 21 22 23 25 26 27 27 25 24 25
Wind_Direction
138 111 51 34 30 26 16 8 7 5 353 342 336 333 333 333 332 331 330 330 329 327 325 326 329 334 341 349 356 358 353 344 337 333 330 328 327 324 323 321 320 318 316 315 314 314 314 315 316 316 316 316 315 315 315 314 314 315 315 315 314 314 314 314 315 316 316 317 317 318 319 319 319 319 319 319 318 318 318 317 317 317 316 315 314 313
137 123 92 58 48 38 20 6 2 360 351 342 337 337 338 338 336 332 331 329 328 326 325 328 334 343 354 1 4 0 351 343 338 336 335 333 331 328 325 322 319 316 314 312 312 313 314 316 316 317 317 317 318 318 318 316 316 317 317 316 316 316 315 315 316 317 317 318 319 319 319 319 320 320 319 319 318 318 317 317 317 316 316 315 313 312
136 125 107 76 57 39 19 5 360 356 352 346 344 345 348 348 345 340 337 334 331 329 330 334 343 356 6 8 3 356 347 343 341 341 341 341 338 335 330 325 320 316 313 313 313 314 316 318 318 319 319 319 319 319 319 318 318 318 318 318 318 317 317 317 318 319 319 320 320 320 320 320 320 320 319 319 319 318 317 316 317 316 316 315 313 313
142 129 113 82 53 32 16 7 0 357 354 353 353 355 358 360 359 357 354 350 344 339 338 343 353 6 9 5 356 348 344 343 344 345 346 345 343 340 336 331 326 322 319 318 318 319 319 320 320 321 321 321 320 320 320 320 320 320 320 320 320 320 319 319 320 320 321 321 321 321 321 321 320 320 319 319 319 318 317 317 317 317 316 315 314 315
144 135 110 79 54 37 21 11 5 2 1 2 4 6 8 11 14 14 12 8 3 357 352 355 0 5 360 353 346 342 342 344 346 347 347 346 344 340 338 334 331 328 325 324 323 322 321 321 322 322 322 322 322 322 322 322 322 322 322 323 323 322 321 322 322 322 321 321 321 322 321 321 320 320 320 319 318 317 317 317 317 317 316 315 315 316
136 129 102 74 53 39 27 19 14 11 12 12 12 12 13 15 18 19 17 16 16 14 10 5 359 350 343 337 336 337 340 343 345 346 346 344 341 338 337 335 334 332 330 327 324 322 321 321 322 323 323 323 324 324 324 325 325 325 325 325 325 324 323 323 323 323 322 322 322 322 322 321 320 320 320 319 318 317 317 317 317 316 316 316 317 317
122 112 91 69 51 39 31 26 21 19 20 21 18 14 12 11 11 12 12 14 16 16 13 8 359 346 335 330 331 334 338 341 343 344 342 340 338 337 337 337 336 335 331 327 324 321 321 322 323 324 325 325 326 326 327 328 328 328 328 327 326 325 324 324 324 324 323 323 322 322 322 321 321 320 320 319 318 318 317 317 317 316 316 317 317 318
107 96 84 69 55 41 33 27 25 25 26 29 25 17 9 6 4 4 4 5 7 7 5 3 358 350 338 330 329 332 336 339 340 339 338 336 335 336 338 339 339 336 331 327 323 321 321 323 325 326 327 328 328 329 331 331 331 331 330 329 327 326 325 325 325 324 323 323 322 322 322 321 321 320 320 320 319 318 318 317 317 317 317 317 317 317
99 89 78 68 60 52 35 25 25 28 32 34 31 23 12 5 2 1 1 357 356 356 355 353 350 346 339 335 332 332 333 335 336 336 334 333 333 335 339 340 339 336 331 327 323 321 321 324 327 328 330 331 332 333 334 334 333 332 331 329 327 326 326 325 325 324 323 323 322 322 321 321 321 320 320 320 319 319 318 318 317 317 317 317 317 317
96 88 76 65 59 57 49 30 25 29 34 35 32 26 18 9 1 357 355 351 349 349 348 345 341 336 334 334 333 332 332 334 335 335 334 333 333 335 337 338 337 334 330 326 322 320 321 325 328 331 334 337 339 339 338 336 334 333 332 329 327 327 326 326 324 323 323 322 321 321 321 321 320 320 320 320 319 319 318 318 318 317 318 318 317 317
89 84 75 62 53 50 47 37 29 28 31 29 25 19 14 9 4 356 346 342 342 343 342 339 334 330 327 328 330 332 335 335 336 336 336 335 335 335 336 336 334 331 328 324 321 320 322 326 330 333 338 341 343 342 339 336 334 333 331 329 328 327 327 326 325 324 323 322 321 320 320 320 320 320 320 320 320 319 319 318 318 318 318 318 318 317
87 81 72 61 49 40 36 29 25 24 25 21 14 8 7 2 1 356 342 334 333 335 335 333 330 325 321 322 327 333 338 338 337 336 337 336 335 335 334 334 333 331 328 325 322 322 324 327 330 335 339 340 340 339 337 335 333 332 331 329 328 327 327 326 325 324 323 323 321 321 321 320 320 320 320 320 320 319 319 319 318 318 318 318 317 317
85 78 70 61 49 38 29 22 21 22 22 20 14 2 350 349 352 350 336 328 329 331 331 330 328 323 318 321 328 337 341 340 338 337 337 336 334 334 334 334 333 332 330 327 326 326 327 329 331 334 336 336 336 335 335 334 333 332 330 329 328 327 326 325 325 325 324 323 322 322 321 321 321 321 321 320 320 319 319 319 318 318 318 317 317 317
77 72 66 59 49 40 31 25 23 22 20 15 7 355 345 346 347 343 333 330 331 332 332 332 330 327 322 323 332 342 345 342 340 338 337 334 333 333 333 332 332 332 330 329 327 326 328 330 330 331 332 333 333 334 334 333 332 332 330 329 327 326 326 326 325 325 324 323 322 322 322 322 321 321 321 320 320 320 319 319 318 318 318 318 317 317
70 66 63 57 50 41 32 26 23 19 13 4 358 354 352 349 347 343 339 336 335 336 337 336 336 335 330 330 338 347 349 346 342 338 335 332 331 332 332 331 331 330 330 328 326 325 327 329 329 328 328 330 331 332 333 332 331 331 330 329 328 327 326 326 326 325 324 324 323 323 323 322 322 321 321 320 320 320 319 319 319 318 318 317 317 317
67 64 62 59 52 43 32 25 19 11 2 358 357 355 350 345 343 344 344 340 339 341 343 343 342 342 342 345 349 350 349 347 343 337 332 328 328 330 332 332 330 329 328 327 325 325 326 327 326 326 326 327 329 331 332 331 331 330 330 329 328 327 327 326 326 326 325 325 324 324 324 323 322 321 321 321 320 320 319 319 319 318 318 317 317 316
65 61 61 58 52 42 29 22 16 7 358 355 354 352 348 344 342 342 342 342 343 345 346 345 344 341 339 346 350 348 343 346 343 335 329 325 325 328 332 332 330 327 326 325 323 323 324 324 324 323 324 325 328 330 331 331 331 330 330 330 329 328 328 327 327 327 326 325 325 325 324 323 323 322 321 321 321 320 320 319 319 319 318 317 317 317
63 58 56 53 48 38 25 17 10 2 357 352 348 346 345 344 343 342 341 343 344 343 341 340 338 334 330 330 338 340 337 343 342 333 326 322 322 326 331 332 330 327 325 323 322 321 321 321 321 321 322 325 326 328 330 330 331 331 330 330 330 329 328 328 328 327 327 326 325 325 324 324 323 322 322 321 321 321 321 320 320 320 319 319 318 318
64 57 52 49 43 35 27 18 8 360 354 348 345 343 343 344 345 345 343 343 342 338 334 330 328 327 324 323 328 332 333 341 341 332 326 322 322 325 332 334 331 328 324 322 322 321 320 318 318 318 320 322 325 327 329 330 331 331 330 330 330 329 329 328 328 327 327 326 325 325 325 324 324 323 322 322 322 322 322 322 322 322 321 321 320 319
69 59 52 46 39 33 28 18 8 0 354 349 347 345 345 345 345 345 344 341 338 334 330 326 323 322 320 319 320 325 331 341 343 335 326 322 322 326 333 335 332 327 324 322 322 322 320 318 317 317 318 320 323 326 328 330 330 330 330 329 329 329 329 328 328 327 327 326 325 324 325 325 325 324 323 323 323 323 323 323 323 323 323 323 322 321
74 64 55 50 44 33 24 10 2 360 358 357 354 351 348 346 345 343 341 339 336 333 330 325 321 317 314 314 315 321 328 343 346 338 328 323 323 328 334 335 332 327 323 322 323 323 322 320 318 317 317 318 321 325 327 329 329 329 328 328 328 328 328 328 327 327 327 326 325 325 325 324 325 325 325 324 324 324 324 325 324 324 324 324 323 322
78 69 57 52 48 40 24 8 2 2 3 3 1 355 350 345 340 336 336 335 334 331 325 317 311 306 302 301 301 310 325 344 347 338 329 324 323 327 333 335 332 327 323 323 324 324 323 320 318 316 316 316 320 324 327 328 328 328 327 327 327 327 327 327 327 327 327 326 326 326 326 325 325 325 325 325 325 325 325 325 325 325 325 324 323 323
75 69 57 47 42 35 25 15 6 2 1 1 358 353 348 342 334 327 327 328 327 323 316 311 307 302 296 291 294 309 326 342 347 342 331 323 321 324 330 333 331 327 323 324 324 324 323 320 317 315 314 315 319 323 326 327 326 326 326 326 326 326 326 326 326 326 326 326 326 326 326 326 325 325 325 325 325 325 324 325 325 325 324 324 323 322
67 62 53 45 38 31 26 19 9 1 357 354 350 346 345 343 338 331 326 326 327 325 321 317 311 304 299 293 298 315 330 341 347 347 337 324 318 320 325 330 330 326 323 324 324 323 321 318 316 314 313 315 319 323 326 327 326 325 325 326 327 326 325 325 325 326 326 326 325 325 326 325 325 325 324 324 324 324 324 323 323 323 323 323 322 321
60 56 50 43 36 30 24 16 5 357 352 348 345 344 347 348 346 339 331 332 333 331 326 318 314 317 322 322 323 327 334 340 347 350 340 326 317 316 322 330 331 326 323 324 324 323 319 316 314 315 314 315 319 323 325 326 325 325 325 326 327 326 325 324 324 324 324 325 325 325 325 324 324 324 324 323 323 323 323 322 322 322 322 321 320 318
53 50 45 38 30 21 13 3 355 350 349 347 347 350 355 359 354 341 333 337 339 337 331 331 334 337 335 334 334 334 336 342 349 350 342 328 318 316 322 331 332 327 322 323 323 322 318 314 313 313 313 316 320 323 324 324 324 325 326 325 325 324 323 323 323 323 323 323 324 324 323 323 323 323 323 323 322 322 322 321 321 321 321 320 318 316
47 43 37 30 21 12 4 357 354 352 352 353 355 360 7 10 5 352 349 345 344 342 339 342 342 339 338 337 334 331 334 343 349 349 343 330 318 316 324 331 333 329 324 323 322 320 316 312 309 310 313 318 321 323 323 323 324 324 324 323 323 322 322 321 320 320 321 321 322 322 322 322 322 323 323 322 322 322 321 320 320 320 320 319 317 314
40 35 29 23 17 12 7 4 2 2 2 2 3 7 12 16 15 7 358 351 348 346 345 347 344 340 337 333 326 324 331 348 353 350 345 334 321 317 323 330 333 332 328 324 323 321 317 313 311 313 316 320 322 323 323 323 323 323 322 321 321 320 319 318 317 318 318 319 320 320 321 320 320 321 321 321 321 321 320 320 320 320 319 318 315 312
33 29 24 20 16 13 10 9 9 9 9 9 10 11 14 18 19 11 358 357 354 348 344 344 342 337 329 322 317 318 335 0 357 350 349 341 327 320 325 330 333 334 333 329 328 327 323 319 317 318 319 321 322 322 322 322 322 322 321 320 320 319 317 316 316 317 316 317 317 318 318 318 318 319 319 319 319 319 319 319 319 319 317 315 312 309
28 24 21 18 15 14 14 15 14 13 12 13 13 14 15 17 16 11 5 5 1 350 340 337 335 331 327 323 318 319 344 0 355 351 351 346 333 326 328 330 333 335 338 336 334 331 326 323 322 321 321 322 321 321 320 320 321 321 321 320 319 318 317 317 316 316 315 314 315 315 315 315 316 316 316 316 317 317 317 317 318 318 315 312 309 306
26 24 21 19 17 16 17 17 16 14 13 13 13 14 14 15 13 9 7 8 5 354 338 330 327 328 329 331 329 327 342 346 346 348 351 345 331 325 328 328 329 332 336 338 337 327 321 321 321 321 322 322 321 320 319 318 318 319 320 320 318 317 316 316 315 314 314 313 314 314 314 313 313 313 313 313 313 314 314 315 315 315 313 310 307 304
27 25 23 20 18 17 17 17 15 13 12 11 11 11 11 12 11 9 7 6 4 357 340 326 321 322 325 326 322 316 317 327 336 343 348 340 327 324 327 325 325 325 328 328 322 311 307 311 315 317 319 319 319 318 316 316 317 318 319 319 317 315 315 315 314 313 313 312 313 313 313 312 312 312 312 311 310 310 311 312 312 312 310 307 304 301
28 26 23 21 18 16 15 14 13 11 10 9 9 8 8 8 9 8 6 4 1 355 343 326 318 316 316 312 308 305 309 318 331 340 343 337 326 322 324 323 321 321 321 320 312 303 295 298 306 311 314 314 314 314 314 315 316 317 318 318 316 314 314 314 314 312 312 312 311 311 311 311 311 311 310 309 308 308 308 309 309 308 306 303 300 298
27 23 21 20 18 16 14 13 11 10 9 7 7 6 6 6 6 5 4 1 358 352 344 330 318 313 313 311 308 306 309 319 329 336 338 334 325 318 320 320 320 320 320 317 313 306 300 300 304 309 311 312 312 311 311 313 315 317 317 316 314 313 313 314 313 312 311 311 311 311 310 310 310 309 309 308 307 307 307 307 306 305 302 299 296 294
24 20 18 17 17 15 14 12 11 10 9 6 5 4 4 4 3 1 360 357 355 350 343 334 324 315 308 305 304 304 307 317 326 332 334 330 322 316 316 315 316 317 317 314 311 310 306 304 305 307 309 311 312 312 311 312 314 316 316 315 313 312 311 312 312 310 310 310 310 309 310 309 309 308 307 307 306 306 306 306 305 303 301 297 293 290
23 19 16 15 15 14 11 9 9 9 8 7 5 3 3 2 0 358 355 353 351 348 342 334 327 321 313 304 297 297 302 313 324 331 331 325 317 312 309 308 309 311 311 309 308 307 306 305 306 307 307 308 310 312 314 315 316 316 315 316 315 313 312 311 310 309 309 309 309 308 309 308 308 306 306 305 305 305 305 304 303 302 300 297 293 288
23 19 16 14 13 12 10 7 6 6 6 5 4 3 2 360 357 355 352 351 349 347 342 335 327 322 318 313 306 302 305 314 323 329 328 321 314 307 302 301 303 305 303 301 302 304 304 306 307 308 307 305 306 310 313 316 317 317 315 315 315 314 311 310 310 309 308 308 307 307 307 307 306 305 305 305 305 305 304 304 303 302 300 298 294 289
22 19 15 14 13 12 10 7 5 4 4 4 3 3 2 359 356 354 351 350 348 345 340 332 325 321 319 317 314 313 314 318 322 325 324 318 312 306 301 299 301 302 299 296 295 297 300 302 305 308 308 306 306 306 309 312 314 315 315 315 315 313 312 311 311 310 309 307 306 306 306 306 306 305 305 306 306 306 305 304 303 302 301 299 295 292
21 18 14 13 13 12 9 6 4 4 4 4 4 4 3 1 359 356 353 350 346 340 333 327 321 318 317 318 319 320 320 320 321 321 321 318 315 311 306 301 299 300 300 297 294 292 291 292 293 297 301 304 305 306 308 309 311 313 315 316 316 315 313 313 312 311 309 308 307 307 307 307 306 306 305 306 305 305 304 304 303 301 300 298 296 293
20 17 14 13 14 14 11 8 6 6 6 6 6 6 5 2 360 358 356 351 344 337 330 326 322 317 314 314 317 320 322 323 321 320 318 320 320 317 310 303 300 301 302 300 296 291 287 285 285 287 289 293 297 301 304 306 308 312 315 316 316 314 314 313 311 309 308 308 308 308 308 307 307 306 304 304 303 302 301 301 300 299 298 296 294 293
20 17 14 14 16 16 14 12 11 11 10 8 5 3 3 2 1 359 357 354 348 342 337 334 330 325 319 314 313 316 320 321 320 318 317 318 318 316 310 305 302 301 301 299 296 292 288 285 285 286 287 288 293 297 300 302 306 310 312 311 310 310 311 311 310 309 310 309 308 308 307 307 306 305 304 302 301 299 298 297 295 295 294 291 289 288
21 18 16 16 17 16 14 14 15 15 14 10 5 2 3 2 359 356 353 351 349 347 345 342 336 330 325 319 314 312 315 317 318 316 315 314 313 311 307 305 303 301 300 297 295 292 289 286 284 285 287 289 292 295 298 301 305 308 308 307 307 308 310 311 311 312 312 310 309 308 307 306 305 304 304 302 300 298 296 294 292 290 289 287 285 283
24 23 22 22 21 19 17 16 16 16 15 12 8 5 5 3 360 355 350 345 343 344 345 343 338 330 322 318 316 314 313 314 314 313 310 310 309 307 303 301 300 300 298 295 293 293 292 289 285 283 284 287 290 292 295 299 303 306 306 306 307 310 311 311 312 313 313 310 308 307 306 306 305 305 303 301 299 298 296 293 290 287 285 283 282 280
27 27 26 26 25 23 21 18 17 16 15 11 8 7 6 5 2 357 350 343 341 342 342 340 337 331 324 320 320 320 318 318 315 310 307 307 307 305 301 299 299 298 296 294 292 293 294 293 289 287 287 288 289 290 293 296 299 302 303 305 306 305 303 305 308 311 311 309 308 307 306 306 306 305 304 302 300 298 296 294 292 288 285 283 280 279
29 29 28 28 28 24 19 17 17 17 14 11 9 7 7 6 4 359 352 344 341 340 339 337 334 331 327 325 325 324 323 322 321 319 317 316 314 310 307 305 304 303 300 295 292 290 291 291 291 292 292 291 289 288 289 291 295 299 301 305 306 304 302 303 305 308 308 308 308 307 307 307 307 306 304 302 301 300 298 295 293 291 288 285 282 280
32 30 28 28 26 23 18 17 17 16 13 11 9 8 7 6 5 2 356 349 344 340 338 336 334 330 326 325 326 327 327 325 324 325 325 324 322 319 316 312 310 307 304 299 295 290 286 285 287 290 293 294 291 288 286 289 293 298 302 305 307 306 306 306 307 307 307 307 307 307 308 309 308 305 303 302 301 300 299 296 294 292 291 289 287 284
35 33 30 28 25 22 19 19 18 16 13 11 9 8 7 6 4 2 358 353 348 341 338 336 335 330 325 325 327 327 327 325 325 324 324 325 326 325 323 320 316 312 308 303 299 293 288 285 283 283 284 287 289 290 290 292 295 298 301 305 307 308 308 307 308 309 308 307 306 307 309 309 308 305 302 301 301 301 300 299 297 295 293 292 290 288
37 35 32 30 26 22 20 19 18 16 13 10 9 8 7 6 3 359 354 351 347 342 338 337 335 330 326 327 327 327 326 323 323 323 324 326 327 327 327 326 323 320 316 311 305 299 293 290 286 282 277 275 278 283 288 294 297 299 301 304 306 307 307 307 309 310 309 308 307 307 308 307 305 303 302 302 302 301 301 301 300 299 296 294 292 290
38 37 35 32 27 24 21 20 19 17 13 10 8 6 6 6 4 359 352 348 344 341 338 335 333 330 327 327 327 327 327 324 322 323 325 326 328 329 329 329 328 327 324 322 318 313 307 301 296 288 277 270 268 273 282 291 297 300 302 305 306 307 307 308 309 310 310 309 308 308 307 304 300 299 299 299 299 300 301 302 302 301 299 296 294 291
40 39 38 34 30 26 24 22 20 17 14 11 7 4 2 2 2 359 354 349 344 340 337 334 331 329 327 326 327 328 327 326 324 324 326 327 330 331 331 331 332 332 331 330 330 329 325 322 318 311 299 280 269 269 275 287 297 302 304 306 307 307 308 308 309 310 310 310 309 309 308 305 302 300 298 297 297 298 300 302 302 301 301 299 297 295
41 41 40 37 33 29 27 24 21 18 15 12 8 3 360 358 356 355 354 351 345 341 337 334 331 328 326 325 325 326 326 325 324 324 325 327 330 332 332 333 334 335 335 335 335 335 334 333 332 330 325 310 292 280 279 290 299 305 306 307 308 309 309 309 309 309 310 310 309 309 308 306 305 303 300 298 297 298 300 301 301 301 302 301 300 298
Height
769 769 769 770 770 770 770 770 770 770 770 770 770 770 770 769 769 769 768 767 767 766 765 764 764 763 762 761 760 760 760 759 758 758 757 756 755 754 753 752 751 750 749 748 747 746 745 744 743 742 740 739 738 737 736 735 734 732 731 730 729 728 727 726 725 725 724 722 721 720 719 718 716 715 714 713 712 711 710 709 707 706 705 704 703 701
769 770 770 770 770 771 771 771 771 771 771 770 770 770 770 770 769 769 768 767 766 766 765 764 763 762 762 761 760 760 759 759 758 757 756 755 754 753 752 751 750 749 748 747 746 745 744 743 742 740 739 738 737 736 735 734 732 731 730 729 728 727 727 726 725 724 723 721 720 719 718 717 715 715 713 712 711 710 709 708 706 705 704 703 702 700
770 770 770 771 771 771 771 771 771 771 771 771 771 770 770 770 769 769 768 767 766 765 765 764 763 762 761 761 760 760 759 758 757 756 755 755 753 752 751 750 749 748 747 746 745 744 743 742 740 739 738 737 736 735 734 732 731 730 730 728 728 727 726 725 724 723 722 720 720 718 717 716 715 714 713 711 710 709 708 707 706 705 703 702 700 699
770 771 771 771 771 771 771 771 771 771 771 771 771 771 770 770 769 769 768 767 766 765 764 764 763 762 761 760 760 759 758 758 757 756 755 754 753 751 750 749 748 747 746 745 744 743 742 740 740 738 737 736 735 734 733 731 730 730 729 728 727 726 725 724 723 722 721 720 719 718 716 715 714 713 712 711 710 708 707 706 705 704 702 701 700 698
771 771 772 772 772 772 772 772 772 772 772 771 771 771 770 770 769 769 768 767 766 765 764 763 763 762 761 760 760 759 758 757 756 755 754 753 751 750 749 748 747 746 745 744 743 742 741 740 738 737 736 735 734 733 732 731 730 729 728 727 726 725 724 723 722 721 720 719 718 717 715 715 713 712 711 710 709 708 706 705 704 703 701 700 699 697
772 772 772 772 772 772 773 772 772 772 772 771 771 771 770 770 769 769 768 767 766 765 764 763 762 762 761 760 759 758 757 756 755 754 753 752 751 750 749 747 746 745 744 743 742 741 740 739 737 736 735 734 733 732 731 730 729 728 727 726 725 725 724 723 722 720 719 718 717 716 715 714 713 711 710 709 708 707 705 704 703 702 700 699 698 696
772 772 773 773 773 773 773 773 773 772 772 771 771 770 770 770 769 769 768 767 766 765 764 763 762 761 760 760 758 757 756 755 754 753 752 751 750 749 748 746 745 744 743 742 741 740 739 738 737 735 734 733 732 731 730 729 728 728 727 726 725 724 723 722 721 720 719 718 716 715 714 713 712 710 710 708 707 706 705 703 702 701 700 698 697 695
773 773 773 773 774 774 774 773 773 772 772 771 771 771 770 770 769 769 768 767 766 765 764 763 762 761 760 759 758 757 756 755 753 752 751 750 749 748 746 745 744 743 741 740 740 739 738 737 736 735 734 732 731 730 730 729 728 727 726 725 725 724 722 721 720 719 718 717 715 715 713 712 711 710 709 707 706 705 704 702 701 700 698 697 696 695
773 774 774 774 774 774 774 774 773 773 772 771 771 771 770 770 769 768 768 767 765 765 764 762 761 760 760 759 757 756 755 754 753 752 750 749 748 747 745 744 743 741 740 740 739 738 737 736 735 734 733 732 731 730 729 728 727 727 726 725 724 723 722 721 720 718 717 716 715 714 713 711 710 709 708 706 705 704 703 701 700 699 697 696 695 694
773 774 774 775 774 774 775 775 774 773 772 771 771 771 771 770 769 768 767 766 765 764 763 762 761 760 759 758 757 755 754 753 752 751 750 748 747 745 744 743 742 741 740 739 738 737 736 736 735 733 732 731 730 730 729 728 727 726 725 724 723 722 721 720 719 718 716 715 714 713 712 710 709 708 707 705 704 703 702 700 699 698 696 695 694 693
774 774 775 775 775 774 774 774 774 773 772 772 772 771 771 770 770 769 767 766 765 764 763 762 760 759 758 757 756 755 754 752 751 750 749 747 746 745 744 742 741 740 740 739 738 737 736 735 734 733 732 731 730 729 728 727 727 726 725 724 723 721 720 719 718 717 715 714 713 712 711 710 708 707 706 705 703 702 701 700 698 697 695 694 693 692
775 775 775 775 775 775 775 774 774 773 773 773 773 772 772 771 770 770 768 767 765 764 762 761 760 759 758 757 755 754 753 752 751 750 748 747 746 745 744 743 741 740 739 739 738 737 736 735 734 732 731 730 730 729 728 727 726 725 724 723 722 721 720 718 717 716 715 713 712 711 710 709 707 706 705 704 702 701 700 699 697 696 695 693 692 691
775 775 775 775 775 775 775 775 775 774 774 774 774 774 773 772 770 770 769 767 766 764 763 761 760 759 757 756 755 754 753 752 751 750 748 747 746 745 744 743 741 740 739 738 737 736 735 734 733 732 731 730 729 728 727 726 725 725 723 722 721 720 719 717 716 715 714 712 711 710 709 708 706 705 704 703 701 700 699 697 696 695 694 692 691 690
775 775 775 775 776 776 776 776 776 775 775 775 775 774 773 772 770 770 768 767 765 764 763 761 760 759 757 755 755 754 753 752 751 750 749 748 746 745 744 743 741 740 739 738 737 736 735 734 733 732 731 730 729 728 727 726 725 724 723 721 720 719 718 716 715 714 713 711 710 709 708 707 705 704 703 702 700 699 698 696 695 694 692 691 690 689
775 775 775 776 776 777 777 777 777 777 776 776 775 774 773 771 770 770 768 767 765 764 762 761 760 759 758 756 755 754 754 753 751 750 749 748 746 745 744 743 741 740 739 738 737 736 735 734 733 731 730 730 729 727 726 725 724 723 722 720 719 718 717 715 714 713 712 710 710 708 707 706 705 703 702 700 699 698 697 695 694 693 691 690 689 687
775 776 776 776 777 778 778 778 777 777 776 776 775 774 772 772 770 770 768 767 765 764 763 761 760 758 758 756 755 754 754 753 752 750 749 747 746 745 744 743 741 740 739 738 737 735 735 733 732 731 730 729 728 726 725 725 723 722 721 720 718 717 716 715 713 712 711 710 709 707 706 705 704 702 701 700 698 697 695 694 693 691 690 689 687 686
776 776 777 777 778 778 778 778 778 777 776 775 775 774 773 772 770 770 769 767 766 765 764 763 761 759 758 757 756 755 754 753 752 751 749 748 746 745 744 743 741 740 739 738 737 735 734 733 732 731 730 728 727 726 725 724 722 721 720 719 718 716 715 714 712 711 710 709 708 706 705 704 702 701 700 699 697 696 694 693 691 690 689 687 686 685
777 778 778 778 779 779 779 778 778 777 776 775 774 773 772 771 770 770 769 768 767 766 765 764 763 761 760 758 757 756 755 754 753 751 750 748 746 745 744 743 741 740 739 738 736 735 734 733 732 730 729 728 727 725 725 723 722 720 719 718 717 715 714 713 712 710 709 708 707 705 704 703 701 700 699 697 696 695 693 692 690 689 688 686 685 684
778 779 779 779 779 779 779 779 778 777 776 775 774 773 772 771 770 770 769 768 767 767 766 765 763 762 761 760 759 757 755 755 754 752 750 748 746 745 744 743 741 740 739 737 736 735 734 732 731 730 729 727 726 725 724 722 721 720 719 717 716 715 714 712 711 710 709 707 706 705 703 702 700 699 698 696 695 693 692 690 689 688 686 685 684 682
779 779 780 780 780 779 779 779 778 777 776 775 774 773 772 771 771 770 769 769 768 767 766 765 764 763 761 760 759 758 756 755 754 752 750 748 746 745 744 743 741 740 739 737 736 735 733 732 730 729 728 727 726 725 723 722 720 719 718 716 715 714 713 711 710 709 708 706 705 704 702 701 700 698 696 695 694 692 691 689 688 686 685 684 682 681
779 780 780 780 780 780 779 779 778 777 776 775 774 773 773 772 771 770 770 769 768 767 766 765 764 763 762 761 760 758 756 755 755 753 751 749 746 745 744 743 741 740 739 737 736 734 733 731 730 729 728 726 725 724 723 721 720 718 717 716 715 713 712 710 709 708 707 705 704 703 701 700 698 697 695 694 692 691 690 688 687 685 684 683 681 680
780 780 780 780 779 779 779 778 777 776 775 775 774 774 773 772 771 770 770 769 768 767 766 765 764 763 762 761 760 758 757 756 755 754 752 749 747 745 744 743 742 740 738 737 735 734 732 731 730 728 727 726 725 724 722 720 719 718 716 715 714 712 711 710 708 707 706 705 703 702 700 699 697 696 694 693 691 690 689 687 686 684 683 682 680 679
779 780 780 779 779 779 778 778 777 776 775 775 775 774 773 773 772 771 770 769 768 767 766 765 763 762 761 760 759 758 757 756 756 755 753 750 748 745 744 743 742 740 738 737 735 733 732 730 729 728 726 725 724 723 721 720 718 717 716 714 713 712 710 709 708 706 705 704 702 700 699 697 696 695 693 692 690 689 687 686 685 683 682 680 679 678
779 780 779 779 779 778 778 777 777 776 775 775 775 774 773 772 771 771 770 769 768 767 765 764 762 761 761 760 760 759 757 756 756 755 754 752 749 746 745 743 742 740 738 737 735 733 731 730 728 727 726 725 724 722 721 719 718 716 715 713 712 711 709 708 707 705 704 702 701 700 698 696 695 693 692 690 689 688 686 685 684 682 681 680 678 677
780 780 779 779 779 778 778 778 777 777 776 775 775 774 773 771 771 770 769 769 768 766 765 764 763 762 761 760 760 759 758 757 756 755 754 752 750 747 745 744 742 740 738 736 735 733 731 729 728 727 726 724 723 721 720 719 717 715 714 712 711 710 708 707 705 704 703 701 700 698 697 695 694 692 691 690 688 687 685 684 682 681 680 678 677 676
780 780 780 779 779 779 778 778 777 776 776 775 774 773 772 771 771 770 770 769 768 767 765 764 763 762 761 760 760 759 758 757 756 756 755 753 750 748 746 745 743 741 739 736 735 733 731 729 727 726 725 724 722 721 720 718 716 715 713 711 710 709 707 706 705 703 702 700 699 697 696 694 693 691 690 688 687 685 684 683 681 680 679 677 676 675
780 780 780 780 779 779 778 778 777 776 775 775 774 773 772 771 771 771 770 769 768 767 766 765 764 762 761 760 760 759 759 758 757 756 755 753 751 748 746 745 744 742 739 736 735 733 731 729 727 726 725 724 722 720 719 717 715 714 712 710 709 707 706 705 703 702 700 699 698 696 695 693 691 690 689 687 685 684 683 681 680 679 677 676 675 673
781 780 780 780 780 779 779 778 777 776 775 775 774 773 772 771 771 771 770 770 768 767 767 766 765 764 762 761 760 759 759 758 757 756 755 753 751 749 747 745 744 743 740 737 735 732 731 729 728 726 725 723 722 720 718 716 714 713 711 709 708 706 705 703 702 700 699 698 696 695 694 692 690 689 687 686 685 683 682 680 679 678 676 675 674 672
781 781 780 780 780 779 779 778 777 776 775 774 773 772 772 771 771 771 770 770 769 768 767 767 766 765 764 762 760 759 759 758 757 756 754 753 752 750 748 746 745 744 742 739 735 731 730 729 727 726 725 723 721 719 717 715 713 712 710 708 706 705 704 702 701 699 698 697 695 694 692 691 689 688 686 685 683 682 681 680 678 677 675 674 673 671
781 781 781 780 780 779 779 778 777 776 775 774 773 773 772 771 771 771 770 769 769 768 768 767 766 765 765 763 760 759 758 758 757 756 755 754 752 750 749 747 746 745 744 741 737 732 729 727 726 726 724 722 720 718 716 715 713 711 709 707 705 704 702 701 700 698 697 695 694 692 691 690 688 686 685 684 682 681 680 678 677 676 675 673 672 670
782 782 781 781 780 779 778 777 777 776 775 774 774 773 772 771 771 770 770 769 769 769 768 768 767 766 765 764 761 760 758 758 758 756 755 754 753 751 750 748 747 746 745 744 742 737 732 727 725 724 723 722 720 718 716 714 712 710 709 707 705 703 701 700 698 697 695 694 692 691 690 688 687 685 684 682 681 680 679 677 676 675 674 672 671 669
783 782 782 781 780 779 779 778 777 776 775 775 774 773 772 771 771 770 770 769 769 769 768 768 767 766 765 765 763 761 760 759 758 757 756 755 754 752 751 750 748 746 745 745 745 742 738 731 726 723 722 721 719 717 715 714 712 710 708 706 704 702 700 699 697 696 694 693 691 690 688 687 685 684 682 681 680 679 677 676 675 675 673 671 670 668
783 783 782 781 781 780 779 778 777 777 776 775 774 773 772 771 771 770 770 769 769 769 768 768 767 766 765 765 764 762 761 760 759 757 756 755 754 753 751 750 748 747 745 744 744 743 740 735 730 725 722 720 718 716 715 713 711 710 708 706 704 701 700 698 697 695 693 692 690 688 687 685 684 682 681 680 678 677 676 675 674 673 672 671 669 667
784 783 783 782 781 780 780 779 778 777 776 775 774 773 772 771 771 770 770 769 769 768 768 768 767 766 765 765 763 762 761 760 759 758 756 756 755 753 751 750 748 747 745 744 742 741 739 735 732 728 723 720 717 716 714 712 710 709 707 706 704 701 699 698 696 694 693 691 689 687 686 684 683 681 680 678 677 675 674 673 672 671 670 669 668 666
785 784 783 782 782 781 780 779 778 777 776 775 774 773 772 772 771 770 770 769 769 768 768 767 767 766 765 765 763 762 760 760 759 757 756 756 755 753 751 750 749 747 745 744 742 740 737 735 732 729 725 721 717 715 713 712 710 708 707 705 703 701 699 697 695 694 692 690 688 687 685 683 681 680 678 677 675 674 673 671 670 669 668 667 666 665
785 784 784 783 782 781 780 780 779 778 776 775 775 774 773 772 771 770 770 769 768 768 767 767 766 765 765 764 763 762 760 759 758 757 756 755 754 753 751 750 748 747 746 744 742 740 738 735 732 729 726 722 718 714 711 710 709 707 706 704 702 700 699 697 695 693 691 689 687 686 684 682 680 679 677 675 674 672 671 669 668 667 666 665 664 663
785 785 784 783 782 781 781 780 779 778 777 776 775 774 773 772 771 770 770 769 768 768 767 766 765 765 764 763 762 761 760 758 757 756 755 755 754 753 751 749 748 747 746 744 742 740 738 735 732 729 726 723 719 715 711 709 708 706 705 703 701 700 698 696 695 693 691 689 687 685 683 681 680 677 675 674 672 670 669 667 666 665 664 662 661 660
786 785 785 784 783 782 781 780 779 778 777 776 775 774 773 772 771 771 770 769 768 767 767 766 765 764 763 762 761 760 759 758 756 755 755 754 753 752 750 749 747 746 745 744 742 740 738 736 733 729 725 722 719 716 713 710 708 705 703 702 700 699 697 695 693 692 690 688 686 684 682 680 678 676 674 672 671 669 667 665 664 663 661 660 659 657
786 785 785 784 783 782 782 781 780 779 778 777 776 775 774 773 772 771 770 769 769 768 767 766 765 764 762 761 760 759 758 757 756 755 754 753 752 751 750 748 746 745 744 743 741 740 738 736 734 730 727 723 719 715 712 710 708 706 703 700 698 697 695 694 692 690 689 687 685 682 680 679 677 675 673 671 669 668 665 664 662 660 659 658 656 655
787 786 785 785 784 783 782 781 780 779 778 777 776 775 774 773 772 771 770 770 769 768 767 766 765 763 762 761 759 758 757 756 755 754 753 752 751 750 749 747 746 744 743 741 740 739 738 735 733 730 728 724 720 716 712 710 708 706 704 701 698 695 693 692 691 689 687 685 684 682 680 677 675 674 672 670 668 666 665 662 660 659 657 656 655 653
787 787 786 785 784 783 783 782 781 780 779 777 776 775 775 774 773 772 771 770 769 768 767 766 765 763 762 760 759 758 757 755 755 754 753 752 750 749 748 746 745 743 742 740 739 738 736 734 732 729 726 724 720 716 713 710 708 706 705 702 699 695 692 691 690 688 686 684 682 680 679 676 674 672 670 668 666 664 663 661 659 657 655 654 653 651
788 787 786 785 785 784 783 782 781 780 779 778 777 776 775 774 773 772 771 770 769 768 767 765 764 763 762 760 759 758 757 755 754 753 752 751 750 749 747 746 744 743 741 740 738 736 735 733 731 728 725 723 720 716 712 709 707 706 704 702 698 695 691 689 687 687 685 683 681 679 677 675 673 670 668 666 664 662 660 659 657 655 654 652 650 649
788 787 787 786 785 784 783 782 781 780 780 779 778 777 776 775 774 773 772 770 770 768 767 766 765 763 762 761 759 758 757 755 754 753 752 751 750 748 747 746 744 743 741 739 737 735 733 731 729 727 724 722 720 717 713 709 706 704 703 701 699 695 691 687 685 684 683 682 680 678 676 674 671 669 666 664 662 660 658 656 654 653 651 650 648 647
789 788 787 786 785 785 784 783 782 781 780 780 779 778 776 775 774 773 772 771 770 769 767 766 765 764 762 761 759 758 756 755 754 753 752 751 750 748 747 745 744 743 741 739 737 734 731 729 727 725 723 721 719 716 713 709 706 703 701 699 697 695 692 689 685 683 681 680 678 676 675 672 670 667 665 662 660 658 656 654 652 650 649 648 646 645
789 788 787 787 786 785 784 784 782 781 781 780 779 778 777 776 775 774 773 772 771 770 768 767 766 764 763 761 760 758 756 755 754 753 751 750 749 748 746 745 743 742 740 738 736 734 732 729 725 723 721 720 718 715 712 709 705 702 699 697 695 693 691 688 686 684 681 678 676 674 673 671 669 666 663 660 657 655 654 652 650 648 646 645 644 642
790 789 788 787 786 786 785 784 783 782 781 780 780 779 778 776 775 775 774 773 771 770 769 768 767 765 764 762 760 758 756 755 753 752 750 750 748 747 745 744 742 741 739 737 735 733 731 728 725 722 720 718 716 713 710 708 705 702 698 696 694 691 689 686 685 683 680 678 675 673 671 670 668 665 662 658 655 653 651 650 648 647 645 643 641 640
790 789 789 788 787 786 785 785 784 783 782 781 780 779 778 777 776 775 774 773 772 771 770 769 767 766 765 763 761 760 757 755 753 751 750 749 747 746 745 743 741 740 738 735 733 731 729 726 724 722 720 717 714 711 708 706 704 701 698 695 693 690 687 685 683 681 679 677 675 672 670 668 666 663 660 657 654 651 649 647 646 645 643 642 640 638
790 790 789 789 788 787 786 785 784 783 783 782 781 780 779 778 777 776 775 774 772 771 770 769 768 766 765 764 762 761 759 757 755 752 750 749 747 745 744 742 740 738 736 734 732 729 727 724 722 720 718 716 713 710 706 704 703 701 698 695 692 690 686 684 681 680 678 675 673 671 669 667 665 662 659 655 652 649 647 645 644 643 641 640 638 636
791 791 790 789 788 788 787 785 785 784 783 782 781 780 780 779 778 777 775 774 773 772 771 770 769 767 765 764 762 761 760 758 756 754 751 750 747 745 743 741 739 737 734 732 730 727 725 722 719 717 715 714 711 709 706 703 701 699 697 695 692 689 686 683 680 678 676 674 671 670 668 666 664 662 659 656 652 648 645 643 642 640 639 638 636 635
792 791 790 790 789 788 787 786 785 785 784 783 782 781 780 779 778 777 776 775 774 773 772 771 770 768 766 765 763 761 760 758 756 754 752 750 748 746 744 742 739 736 734 730 727 725 722 719 716 714 713 711 710 708 705 703 700 698 696 694 691 689 686 683 679 677 675 672 670 667 666 664 662 660 659 656 652 648 645 642 640 638 636 635 634 632
793 792 791 790 790 789 788 787 786 785 785 784 783 782 781 780 779 778 777 775 775 774 773 771 770 769 767 765 764 762 760 759 757 755 753 751 749 747 745 743 741 738 735 731 728 725 721 718 714 712 710 709 708 707 705 703 700 697 695 692 690 688 685 682 679 676 673 671 669 666 664 662 660 659 657 655 652 648 644 641 638 635 634 632 631 630